contact:dominique.lefevre@mio.osupytheas.fr, maurice.libes@osupytheas.fr, didier.mallarino@osupytheas.fr
Project:EMSO http://www.emso-fr.org/EMSO-France
Depth: 2436.0 m
Title:EMSO Ligure Ouest : Data MII capteur MICROCAT
DateTime_Computer,Latitude,Longitude,Temperature,Conductivity,Pressure,DateTime_Instrument
DateTime_Computer,Latitude,Longitude,degC,S m-1,dbar,DateTime_Instrument
2019-11-30T00:01:41Z,42.805,6.029,13.2973,4.59983,2470.017,2019-11-30T02:02:10Z
2019-11-30T00:04:44Z,42.805,6.029,13.2975,4.59981,2470.03,2019-11-30T02:05:13Z
2019-11-30T00:07:47Z,42.805,6.029,13.2974,4.59979,2470.017,2019-11-30T02:08:16Z
2019-11-30T00:10:50Z,42.805,6.029,13.2973,4.59978,2470.017,2019-11-30T02:11:19Z
2019-11-30T00:13:53Z,42.805,6.029,13.2969,4.59981,2470.007,2019-11-30T02:14:22Z
2019-11-30T00:16:57Z,42.805,6.029,13.2971,4.59978,2469.97,2019-11-30T02:17:25Z
2019-11-30T00:20:00Z,42.805,6.029,13.2975,4.59981,2470.007,2019-11-30T02:20:29Z
2019-11-30T00:23:03Z,42.805,6.029,13.2975,4.59984,2470.03,2019-11-30T02:23:32Z
2019-11-30T00:26:06Z,42.805,6.029,13.2974,4.59981,2470.03,2019-11-30T02:26:35Z
2019-11-30T00:29:09Z,42.805,6.029,13.2974,4.59983,2470.017,2019-11-30T02:29:38Z
2019-11-30T00:32:13Z,42.805,6.029,13.2974,4.59985,2470.007,2019-11-30T02:32:41Z
2019-11-30T00:35:16Z,42.805,6.029,13.2976,4.59979,2470.03,2019-11-30T02:35:45Z
2019-11-30T00:38:19Z,42.805,6.029,13.2973,4.59981,2470.017,2019-11-30T02:38:48Z
2019-11-30T00:41:22Z,42.805,6.029,13.2976,4.59982,2470.03,2019-11-30T02:41:51Z
2019-11-30T00:44:25Z,42.805,6.029,13.2974,4.59980,2470.007,2019-11-30T02:44:54Z
2019-11-30T00:47:29Z,42.805,6.029,13.2972,4.59979,2469.993,2019-11-30T02:47:57Z
2019-11-30T00:50:32Z,42.805,6.029,13.2971,4.59979,2470.017,2019-11-30T02:51:01Z
2019-11-30T00:53:35Z,42.805,6.029,13.2971,4.59978,2470.03,2019-11-30T02:54:04Z
2019-11-30T00:56:38Z,42.805,6.029,13.2970,4.59991,2469.993,2019-11-30T02:57:07Z
2019-11-30T00:59:41Z,42.805,6.029,13.2975,4.59978,2469.97,2019-11-30T03:00:10Z
2019-11-30T01:02:44Z,42.805,6.029,13.2974,4.59979,2469.97,2019-11-30T03:03:13Z
2019-11-30T01:05:48Z,42.805,6.029,13.2974,4.59981,2469.97,2019-11-30T03:06:17Z
2019-11-30T01:08:51Z,42.805,6.029,13.2972,4.59979,2469.993,2019-11-30T03:09:20Z
2019-11-30T01:11:54Z,42.805,6.029,13.2971,4.59980,2469.993,2019-11-30T03:12:23Z
2019-11-30T01:14:57Z,42.805,6.029,13.2972,4.59982,2469.993,2019-11-30T03:15:26Z
2019-11-30T01:18:00Z,42.805,6.029,13.2976,4.59981,2469.97,2019-11-30T03:18:29Z
2019-11-30T01:21:04Z,42.805,6.029,13.2976,4.59981,2469.97,2019-11-30T03:21:32Z
2019-11-30T01:24:07Z,42.805,6.029,13.2973,4.59984,2469.97,2019-11-30T03:24:36Z
2019-11-30T01:27:10Z,42.805,6.029,13.2972,4.59983,2469.984,2019-11-30T03:27:39Z
2019-11-30T01:30:13Z,42.805,6.029,13.2973,4.59984,2470.007,2019-11-30T03:30:42Z
2019-11-30T01:33:16Z,42.805,6.029,13.2973,4.59979,2469.993,2019-11-30T03:33:45Z
2019-11-30T01:36:19Z,42.805,6.029,13.2974,4.59984,2469.947,2019-11-30T03:36:48Z
2019-11-30T01:39:23Z,42.805,6.029,13.2975,4.59983,2469.993,2019-11-30T03:39:52Z
2019-11-30T01:42:26Z,42.805,6.029,13.2973,4.59980,2469.96,2019-11-30T03:42:55Z
2019-11-30T01:45:29Z,42.805,6.029,13.2973,4.59981,2470.017,2019-11-30T03:45:58Z
2019-11-30T01:48:32Z,42.805,6.029,13.2974,4.59988,2469.97,2019-11-30T03:49:01Z
2019-11-30T01:51:35Z,42.805,6.029,13.2969,4.59982,2469.984,2019-11-30T03:52:04Z
2019-11-30T01:54:39Z,42.805,6.029,13.2974,4.59979,2469.97,2019-11-30T03:55:08Z
2019-11-30T01:57:42Z,42.805,6.029,13.2976,4.59979,2469.947,2019-11-30T03:58:11Z
2019-11-30T02:00:45Z,42.805,6.029,13.2974,4.59979,2469.97,2019-11-30T04:01:14Z
2019-11-30T02:03:48Z,42.805,6.029,13.2974,4.59981,2469.96,2019-11-30T04:04:17Z
2019-11-30T02:06:51Z,42.805,6.029,13.2972,4.59979,2469.97,2019-11-30T04:07:20Z
2019-11-30T02:09:55Z,42.805,6.029,13.2972,4.59983,2469.97,2019-11-30T04:10:23Z
2019-11-30T02:12:58Z,42.805,6.029,13.2975,4.59979,2469.984,2019-11-30T04:13:27Z
2019-11-30T02:16:01Z,42.805,6.029,13.2974,4.59978,2469.96,2019-11-30T04:16:30Z
2019-11-30T02:19:05Z,42.805,6.029,13.2973,4.59981,2469.947,2019-11-30T04:19:34Z
2019-11-30T02:22:08Z,42.805,6.029,13.2974,4.59982,2469.993,2019-11-30T04:22:37Z
2019-11-30T02:25:11Z,42.805,6.029,13.2975,4.59982,2469.96,2019-11-30T04:25:40Z
2019-11-30T02:28:14Z,42.805,6.029,13.2976,4.59986,2469.984,2019-11-30T04:28:43Z
2019-11-30T02:31:18Z,42.805,6.029,13.2974,4.59985,2469.984,2019-11-30T04:31:46Z
2019-11-30T02:34:21Z,42.805,6.029,13.2972,4.59994,2469.947,2019-11-30T04:34:50Z
2019-11-30T02:37:24Z,42.805,6.029,13.2973,4.59985,2469.96,2019-11-30T04:37:53Z
2019-11-30T02:40:27Z,42.805,6.029,13.2976,4.59983,2469.984,2019-11-30T04:40:56Z
2019-11-30T02:43:30Z,42.805,6.029,13.2976,4.59981,2469.947,2019-11-30T04:43:59Z
2019-11-30T02:46:33Z,42.805,6.029,13.2973,4.59979,2469.96,2019-11-30T04:47:02Z
2019-11-30T02:49:37Z,42.805,6.029,13.2971,4.59981,2469.984,2019-11-30T04:50:06Z
2019-11-30T02:52:40Z,42.805,6.029,13.2974,4.59983,2469.984,2019-11-30T04:53:09Z
2019-11-30T02:55:43Z,42.805,6.029,13.2971,4.59985,2469.933,2019-11-30T04:56:12Z
2019-11-30T02:58:46Z,42.805,6.029,13.2971,4.59981,2469.97,2019-11-30T04:59:15Z
2019-11-30T03:01:49Z,42.805,6.029,13.2976,4.59986,2469.97,2019-11-30T05:02:18Z
2019-11-30T03:04:53Z,42.805,6.029,13.2974,4.59988,2469.96,2019-11-30T05:05:22Z
2019-11-30T03:07:56Z,42.805,6.029,13.2976,4.59994,2469.937,2019-11-30T05:08:25Z
2019-11-30T03:10:59Z,42.805,6.029,13.2976,4.59994,2469.947,2019-11-30T05:11:28Z
2019-11-30T03:14:02Z,42.805,6.029,13.2974,4.59992,2470.03,2019-11-30T05:14:31Z
2019-11-30T03:17:05Z,42.805,6.029,13.2975,4.59995,2469.947,2019-11-30T05:17:34Z
2019-11-30T03:20:09Z,42.805,6.029,13.2972,4.59991,2469.923,2019-11-30T05:20:38Z
2019-11-30T03:23:12Z,42.805,6.029,13.2971,4.59987,2469.937,2019-11-30T05:23:41Z
2019-11-30T03:26:15Z,42.805,6.029,13.2976,4.59983,2469.96,2019-11-30T05:26:44Z
2019-11-30T03:29:18Z,42.805,6.029,13.2973,4.59991,2469.96,2019-11-30T05:29:47Z
2019-11-30T03:32:21Z,42.805,6.029,13.2974,4.59999,2469.923,2019-11-30T05:32:50Z
2019-11-30T03:35:25Z,42.805,6.029,13.2976,4.59985,2469.96,2019-11-30T05:35:53Z
2019-11-30T03:38:28Z,42.805,6.029,13.2972,4.59986,2469.937,2019-11-30T05:38:57Z
2019-11-30T03:41:31Z,42.805,6.029,13.2976,4.59986,2469.96,2019-11-30T05:42:00Z
2019-11-30T03:44:34Z,42.805,6.029,13.2974,4.59988,2469.947,2019-11-30T05:45:03Z
2019-11-30T03:47:37Z,42.805,6.029,13.2975,4.59985,2469.96,2019-11-30T05:48:06Z
2019-11-30T03:50:40Z,42.805,6.029,13.2974,4.59988,2469.923,2019-11-30T05:51:09Z
2019-11-30T03:53:44Z,42.805,6.029,13.2971,4.59987,2469.96,2019-11-30T05:54:13Z
2019-11-30T03:56:47Z,42.805,6.029,13.2974,4.59993,2469.933,2019-11-30T05:57:16Z
2019-11-30T03:59:50Z,42.805,6.029,13.2968,4.59993,2469.947,2019-11-30T06:00:19Z
2019-11-30T04:02:53Z,42.805,6.029,13.2975,4.60006,2469.984,2019-11-30T06:03:22Z
2019-11-30T04:05:57Z,42.805,6.029,13.2976,4.60014,2469.96,2019-11-30T06:06:26Z
2019-11-30T04:09:00Z,42.805,6.029,13.2974,4.59997,2469.984,2019-11-30T06:09:29Z
2019-11-30T04:12:03Z,42.805,6.029,13.2975,4.60003,2469.923,2019-11-30T06:12:32Z
2019-11-30T04:15:06Z,42.805,6.029,13.2976,4.60000,2469.984,2019-11-30T06:15:35Z
2019-11-30T04:18:09Z,42.805,6.029,13.2974,4.60003,2469.96,2019-11-30T06:18:38Z
2019-11-30T04:21:13Z,42.805,6.029,13.2978,4.59999,2469.947,2019-11-30T06:21:41Z
2019-11-30T04:24:16Z,42.805,6.029,13.2975,4.59988,2469.96,2019-11-30T06:24:45Z
2019-11-30T04:27:19Z,42.805,6.029,13.2969,4.59986,2469.97,2019-11-30T06:27:48Z
2019-11-30T04:30:22Z,42.805,6.029,13.2971,4.59988,2469.947,2019-11-30T06:30:51Z
2019-11-30T04:33:25Z,42.805,6.029,13.2976,4.59994,2469.947,2019-11-30T06:33:54Z
2019-11-30T04:36:29Z,42.805,6.029,13.2972,4.60001,2469.947,2019-11-30T06:36:57Z
2019-11-30T04:39:32Z,42.805,6.029,13.2974,4.60003,2469.923,2019-11-30T06:40:01Z
2019-11-30T04:42:35Z,42.805,6.029,13.2972,4.60000,2469.97,2019-11-30T06:43:04Z
2019-11-30T04:45:38Z,42.805,6.029,13.2973,4.59996,2469.96,2019-11-30T06:46:07Z
2019-11-30T04:48:41Z,42.805,6.029,13.2973,4.59998,2469.96,2019-11-30T06:49:10Z
2019-11-30T04:51:45Z,42.805,6.029,13.2974,4.59998,2469.947,2019-11-30T06:52:13Z
2019-11-30T04:54:48Z,42.805,6.029,13.2976,4.60003,2469.97,2019-11-30T06:55:17Z
2019-11-30T04:57:51Z,42.805,6.029,13.3001,4.60008,2469.97,2019-11-30T06:58:20Z
2019-11-30T05:00:54Z,42.805,6.029,13.2972,4.60007,2469.947,2019-11-30T07:01:23Z
2019-11-30T05:03:57Z,42.805,6.029,13.2980,4.60001,2469.984,2019-11-30T07:04:26Z
2019-11-30T05:07:01Z,42.805,6.029,13.2977,4.60014,2469.984,2019-11-30T07:07:30Z
2019-11-30T05:10:04Z,42.805,6.029,13.2979,4.60014,2469.97,2019-11-30T07:10:33Z
2019-11-30T05:13:07Z,42.805,6.029,13.3009,4.60034,2469.97,2019-11-30T07:13:36Z
2019-11-30T05:16:10Z,42.805,6.029,13.3030,4.60023,2470.007,2019-11-30T07:16:39Z
2019-11-30T05:19:13Z,42.805,6.029,13.2990,4.60016,2469.984,2019-11-30T07:19:42Z
2019-11-30T05:22:17Z,42.805,6.029,13.2972,4.60035,2469.993,2019-11-30T07:22:45Z
2019-11-30T05:25:20Z,42.805,6.029,13.2973,4.60014,2470.007,2019-11-30T07:25:49Z
2019-11-30T05:28:23Z,42.805,6.029,13.2973,4.60013,2469.984,2019-11-30T07:28:52Z
2019-11-30T05:31:26Z,42.805,6.029,13.2978,4.60002,2469.97,2019-11-30T07:31:55Z
2019-11-30T05:34:29Z,42.805,6.029,13.2991,4.59998,2470.007,2019-11-30T07:34:58Z
2019-11-30T05:37:33Z,42.805,6.029,13.2984,4.60025,2469.984,2019-11-30T07:38:01Z
2019-11-30T05:40:36Z,42.805,6.029,13.2977,4.59999,2470.007,2019-11-30T07:41:05Z
2019-11-30T05:43:39Z,42.805,6.029,13.3026,4.60016,2469.993,2019-11-30T07:44:08Z
2019-11-30T05:46:42Z,42.805,6.029,13.2978,4.60011,2469.97,2019-11-30T07:47:11Z
2019-11-30T05:49:45Z,42.805,6.029,13.3009,4.60037,2469.993,2019-11-30T07:50:14Z
2019-11-30T05:52:49Z,42.805,6.029,13.2996,4.60014,2470.007,2019-11-30T07:53:17Z
2019-11-30T05:55:52Z,42.805,6.029,13.2986,4.60026,2470.007,2019-11-30T07:56:21Z
2019-11-30T05:58:55Z,42.805,6.029,13.2974,4.60032,2469.993,2019-11-30T07:59:24Z
2019-11-30T06:01:58Z,42.805,6.029,13.2971,4.60008,2470.007,2019-11-30T08:02:27Z
2019-11-30T06:05:01Z,42.805,6.029,13.2993,4.60002,2470.007,2019-11-30T08:05:30Z
2019-11-30T06:08:04Z,42.805,6.029,13.2993,4.60012,2470.04,2019-11-30T08:08:33Z
2019-11-30T06:11:08Z,42.805,6.029,13.3026,4.60029,2470.053,2019-11-30T08:11:37Z
2019-11-30T06:14:11Z,42.805,6.029,13.3041,4.60031,2470.053,2019-11-30T08:14:40Z
2019-11-30T06:17:14Z,42.805,6.029,13.3022,4.60006,2470.03,2019-11-30T08:17:43Z
2019-11-30T06:20:17Z,42.805,6.029,13.3004,4.60011,2470.053,2019-11-30T08:20:46Z
2019-11-30T06:23:20Z,42.805,6.029,13.3037,4.60009,2470.053,2019-11-30T08:23:49Z
2019-11-30T06:26:24Z,42.805,6.029,13.3011,4.60001,2470.04,2019-11-30T08:26:52Z
2019-11-30T06:29:27Z,42.805,6.029,13.3007,4.60006,2470.053,2019-11-30T08:29:56Z
2019-11-30T06:32:30Z,42.805,6.029,13.2992,4.60016,2470.077,2019-11-30T08:32:59Z
2019-11-30T06:35:33Z,42.805,6.029,13.3009,4.60011,2470.063,2019-11-30T08:36:02Z
2019-11-30T06:38:36Z,42.805,6.029,13.3009,4.60009,2470.077,2019-11-30T08:39:05Z
2019-11-30T06:41:40Z,42.805,6.029,13.3031,4.60012,2470.063,2019-11-30T08:42:08Z
2019-11-30T06:44:43Z,42.805,6.029,13.3018,4.60009,2470.087,2019-11-30T08:45:12Z
2019-11-30T06:47:46Z,42.805,6.029,13.3008,4.60000,2470.1,2019-11-30T08:48:15Z
2019-11-30T06:50:49Z,42.805,6.029,13.3001,4.60001,2470.063,2019-11-30T08:51:18Z
2019-11-30T06:53:52Z,42.805,6.029,13.3021,4.60003,2470.077,2019-11-30T08:54:21Z
2019-11-30T06:56:56Z,42.805,6.029,13.3013,4.60008,2470.087,2019-11-30T08:57:24Z
2019-11-30T06:59:59Z,42.805,6.029,13.3005,4.60013,2470.087,2019-11-30T09:00:28Z
2019-11-30T07:03:02Z,42.805,6.029,13.3017,4.60003,2470.087,2019-11-30T09:03:31Z
2019-11-30T07:06:05Z,42.805,6.029,13.3011,4.60006,2470.077,2019-11-30T09:06:34Z
2019-11-30T07:09:08Z,42.805,6.029,13.3022,4.60009,2470.124,2019-11-30T09:09:37Z
2019-11-30T07:12:11Z,42.805,6.029,13.3003,4.59996,2470.147,2019-11-30T09:12:40Z
2019-11-30T07:15:15Z,42.805,6.029,13.3007,4.60002,2470.1,2019-11-30T09:15:44Z
2019-11-30T07:18:18Z,42.805,6.029,13.3011,4.60011,2470.124,2019-11-30T09:18:47Z
2019-11-30T07:21:21Z,42.805,6.029,13.2997,4.59997,2470.1,2019-11-30T09:21:50Z
2019-11-30T07:24:24Z,42.805,6.029,13.2995,4.59992,2470.11,2019-11-30T09:24:53Z
2019-11-30T07:27:28Z,42.805,6.029,13.3014,4.60004,2470.147,2019-11-30T09:27:56Z
2019-11-30T07:30:31Z,42.805,6.029,13.2993,4.59999,2470.124,2019-11-30T09:31:00Z
2019-11-30T07:33:34Z,42.805,6.029,13.3000,4.60003,2470.133,2019-11-30T09:34:03Z
2019-11-30T07:36:37Z,42.805,6.029,13.3004,4.60043,2470.147,2019-11-30T09:37:06Z
2019-11-30T07:39:40Z,42.805,6.029,13.3001,4.59999,2470.11,2019-11-30T09:40:09Z
2019-11-30T07:42:44Z,42.805,6.029,13.3004,4.59996,2470.133,2019-11-30T09:43:13Z
2019-11-30T07:45:47Z,42.805,6.029,13.3016,4.59999,2470.124,2019-11-30T09:46:16Z
2019-11-30T07:48:50Z,42.805,6.029,13.3004,4.59993,2470.124,2019-11-30T09:49:19Z
2019-11-30T07:51:53Z,42.805,6.029,13.3007,4.59994,2470.133,2019-11-30T09:52:22Z
2019-11-30T07:54:56Z,42.805,6.029,13.3002,4.59998,2470.171,2019-11-30T09:55:25Z
2019-11-30T07:58:00Z,42.805,6.029,13.3012,4.59999,2470.133,2019-11-30T09:58:29Z
2019-11-30T08:01:03Z,42.805,6.029,13.3008,4.59997,2470.194,2019-11-30T10:01:32Z
2019-11-30T08:04:06Z,42.805,6.029,13.2998,4.59992,2470.156,2019-11-30T10:04:35Z
2019-11-30T08:07:09Z,42.805,6.029,13.2996,4.60002,2470.133,2019-11-30T10:07:38Z
2019-11-30T08:10:12Z,42.805,6.029,13.3006,4.59997,2470.147,2019-11-30T10:10:41Z
2019-11-30T08:13:16Z,42.805,6.029,13.3004,4.60001,2470.171,2019-11-30T10:13:45Z
2019-11-30T08:16:19Z,42.805,6.029,13.3001,4.59995,2470.203,2019-11-30T10:16:48Z
2019-11-30T08:19:22Z,42.805,6.029,13.2995,4.59991,2470.133,2019-11-30T10:19:51Z
2019-11-30T08:22:25Z,42.805,6.029,13.2998,4.59999,2470.171,2019-11-30T10:22:54Z
2019-11-30T08:25:28Z,42.805,6.029,13.3014,4.59994,2470.156,2019-11-30T10:25:57Z
2019-11-30T08:28:32Z,42.805,6.029,13.3001,4.59999,2470.147,2019-11-30T10:29:01Z
2019-11-30T08:31:35Z,42.805,6.029,13.2998,4.60003,2470.194,2019-11-30T10:32:04Z
2019-11-30T08:34:38Z,42.805,6.029,13.3003,4.59994,2470.18,2019-11-30T10:35:07Z
2019-11-30T08:37:41Z,42.805,6.029,13.3005,4.59996,2470.156,2019-11-30T10:38:10Z
2019-11-30T08:40:44Z,42.805,6.029,13.3006,4.59999,2470.18,2019-11-30T10:41:13Z
2019-11-30T08:43:48Z,42.805,6.029,13.2997,4.59996,2470.156,2019-11-30T10:44:17Z
2019-11-30T08:46:51Z,42.805,6.029,13.2996,4.59999,2470.18,2019-11-30T10:47:20Z
2019-11-30T08:49:54Z,42.805,6.029,13.2998,4.60000,2470.217,2019-11-30T10:50:23Z
2019-11-30T08:52:58Z,42.805,6.029,13.3004,4.60000,2470.194,2019-11-30T10:53:27Z
2019-11-30T08:56:01Z,42.805,6.029,13.3026,4.59996,2470.217,2019-11-30T10:56:30Z
2019-11-30T08:59:04Z,42.805,6.029,13.3001,4.59994,2470.156,2019-11-30T10:59:33Z
2019-11-30T09:02:07Z,42.805,6.029,13.3004,4.59997,2470.18,2019-11-30T11:02:36Z
2019-11-30T09:05:11Z,42.805,6.029,13.3005,4.59990,2470.18,2019-11-30T11:05:40Z
2019-11-30T09:08:14Z,42.805,6.029,13.3000,4.59993,2470.171,2019-11-30T11:08:43Z
2019-11-30T09:11:17Z,42.805,6.029,13.3001,4.59993,2470.203,2019-11-30T11:11:46Z
2019-11-30T09:14:20Z,42.805,6.029,13.2997,4.60002,2470.203,2019-11-30T11:14:49Z
2019-11-30T09:17:23Z,42.805,6.029,13.2996,4.60006,2470.194,2019-11-30T11:17:52Z
2019-11-30T09:20:27Z,42.805,6.029,13.3002,4.59992,2470.217,2019-11-30T11:20:56Z
2019-11-30T09:23:30Z,42.805,6.029,13.2998,4.60001,2470.171,2019-11-30T11:23:59Z
2019-11-30T09:26:33Z,42.805,6.029,13.3002,4.59997,2470.156,2019-11-30T11:27:02Z
2019-11-30T09:29:36Z,42.805,6.029,13.2999,4.59996,2470.203,2019-11-30T11:30:05Z
2019-11-30T09:32:40Z,42.805,6.029,13.2998,4.59992,2470.18,2019-11-30T11:33:08Z
2019-11-30T09:35:43Z,42.805,6.029,13.2996,4.60004,2470.171,2019-11-30T11:36:12Z
2019-11-30T09:38:46Z,42.805,6.029,13.3000,4.59993,2470.194,2019-11-30T11:39:15Z
2019-11-30T09:41:49Z,42.805,6.029,13.2997,4.60009,2470.203,2019-11-30T11:42:18Z
2019-11-30T09:44:52Z,42.805,6.029,13.3006,4.59991,2470.171,2019-11-30T11:45:21Z
2019-11-30T09:47:56Z,42.805,6.029,13.2998,4.59996,2470.171,2019-11-30T11:48:25Z
2019-11-30T09:50:59Z,42.805,6.029,13.3009,4.59994,2470.203,2019-11-30T11:51:28Z
2019-11-30T09:54:02Z,42.805,6.029,13.2999,4.59998,2470.156,2019-11-30T11:54:31Z
2019-11-30T09:57:05Z,42.805,6.029,13.3000,4.60001,2470.18,2019-11-30T11:57:34Z
2019-11-30T10:00:08Z,42.805,6.029,13.3004,4.59993,2470.156,2019-11-30T12:00:37Z
2019-11-30T10:03:12Z,42.805,6.029,13.3004,4.59992,2470.203,2019-11-30T12:03:41Z
2019-11-30T10:06:15Z,42.805,6.029,13.3002,4.59998,2470.18,2019-11-30T12:06:44Z
2019-11-30T10:09:18Z,42.805,6.029,13.3010,4.59997,2470.156,2019-11-30T12:09:47Z
2019-11-30T10:12:21Z,42.805,6.029,13.2996,4.59987,2470.18,2019-11-30T12:12:50Z
2019-11-30T10:15:24Z,42.805,6.029,13.3003,4.59998,2470.194,2019-11-30T12:15:53Z
2019-11-30T10:18:28Z,42.805,6.029,13.2993,4.59998,2470.217,2019-11-30T12:18:56Z
2019-11-30T10:21:31Z,42.805,6.029,13.2994,4.59999,2470.217,2019-11-30T12:22:00Z
2019-11-30T10:24:34Z,42.805,6.029,13.2998,4.59994,2470.18,2019-11-30T12:25:03Z
2019-11-30T10:27:37Z,42.805,6.029,13.3005,4.60003,2470.194,2019-11-30T12:28:06Z
2019-11-30T10:30:40Z,42.805,6.029,13.3005,4.59997,2470.18,2019-11-30T12:31:09Z
2019-11-30T10:33:44Z,42.805,6.029,13.2997,4.59998,2470.171,2019-11-30T12:34:12Z
2019-11-30T10:36:47Z,42.805,6.029,13.3014,4.59993,2470.171,2019-11-30T12:37:16Z
2019-11-30T10:39:50Z,42.805,6.029,13.2993,4.59994,2470.194,2019-11-30T12:40:19Z
2019-11-30T10:42:53Z,42.805,6.029,13.2989,4.59995,2470.18,2019-11-30T12:43:22Z
2019-11-30T10:45:56Z,42.805,6.029,13.2997,4.60010,2470.217,2019-11-30T12:46:25Z
2019-11-30T10:49:00Z,42.805,6.029,13.3004,4.59995,2470.194,2019-11-30T12:49:29Z
2019-11-30T10:52:03Z,42.805,6.029,13.2997,4.59993,2470.133,2019-11-30T12:52:32Z
2019-11-30T10:55:06Z,42.805,6.029,13.2992,4.59995,2470.156,2019-11-30T12:55:35Z
2019-11-30T10:58:09Z,42.805,6.029,13.2999,4.59985,2470.18,2019-11-30T12:58:38Z
2019-11-30T11:01:12Z,42.805,6.029,13.3001,4.60004,2470.18,2019-11-30T13:01:41Z
2019-11-30T11:04:16Z,42.805,6.029,13.2995,4.59988,2470.18,2019-11-30T13:04:44Z
2019-11-30T11:07:19Z,42.805,6.029,13.3000,4.59996,2470.156,2019-11-30T13:07:48Z
2019-11-30T11:10:22Z,42.805,6.029,13.2998,4.59991,2470.156,2019-11-30T13:10:51Z
2019-11-30T11:13:25Z,42.805,6.029,13.3000,4.60006,2470.217,2019-11-30T13:13:54Z
2019-11-30T11:16:28Z,42.805,6.029,13.2997,4.59991,2470.133,2019-11-30T13:16:57Z
2019-11-30T11:19:31Z,42.805,6.029,13.3009,4.59996,2470.194,2019-11-30T13:20:00Z
2019-11-30T11:22:35Z,42.805,6.029,13.3004,4.59994,2470.156,2019-11-30T13:23:04Z
2019-11-30T11:25:38Z,42.805,6.029,13.2999,4.59988,2470.124,2019-11-30T13:26:07Z
2019-11-30T11:28:41Z,42.805,6.029,13.3010,4.60001,2470.171,2019-11-30T13:29:10Z
2019-11-30T11:31:44Z,42.805,6.029,13.3012,4.60002,2470.133,2019-11-30T13:32:13Z
2019-11-30T11:34:47Z,42.805,6.029,13.2998,4.59999,2470.156,2019-11-30T13:35:16Z
2019-11-30T11:37:51Z,42.805,6.029,13.2998,4.59996,2470.11,2019-11-30T13:38:20Z
2019-11-30T11:40:54Z,42.805,6.029,13.2994,4.59999,2470.217,2019-11-30T13:41:23Z
2019-11-30T11:43:57Z,42.805,6.029,13.2998,4.59990,2470.11,2019-11-30T13:44:26Z
2019-11-30T11:47:00Z,42.805,6.029,13.3006,4.59997,2470.147,2019-11-30T13:47:29Z
2019-11-30T11:50:04Z,42.805,6.029,13.2996,4.59996,2470.171,2019-11-30T13:50:32Z
2019-11-30T11:53:07Z,42.805,6.029,13.3000,4.60001,2470.156,2019-11-30T13:53:36Z
2019-11-30T11:56:10Z,42.805,6.029,13.3009,4.59986,2470.133,2019-11-30T13:56:39Z
2019-11-30T11:59:13Z,42.805,6.029,13.2993,4.59993,2470.147,2019-11-30T13:59:42Z
2019-11-30T12:02:16Z,42.805,6.029,13.2993,4.60004,2470.147,2019-11-30T14:02:45Z
2019-11-30T12:05:20Z,42.805,6.029,13.3002,4.59997,2470.147,2019-11-30T14:05:49Z
2019-11-30T12:08:23Z,42.805,6.029,13.3004,4.60004,2470.156,2019-11-30T14:08:52Z
2019-11-30T12:11:26Z,42.805,6.029,13.3008,4.59996,2470.124,2019-11-30T14:11:55Z
2019-11-30T12:14:29Z,42.805,6.029,13.3027,4.59999,2470.147,2019-11-30T14:14:58Z
2019-11-30T12:17:32Z,42.805,6.029,13.3004,4.59996,2470.124,2019-11-30T14:18:01Z
2019-11-30T12:20:36Z,42.805,6.029,13.3026,4.60004,2470.156,2019-11-30T14:21:04Z
2019-11-30T12:23:39Z,42.805,6.029,13.3018,4.59996,2470.124,2019-11-30T14:24:08Z
2019-11-30T12:26:42Z,42.805,6.029,13.3007,4.60022,2470.133,2019-11-30T14:27:11Z
2019-11-30T12:29:45Z,42.805,6.029,13.3003,4.59998,2470.147,2019-11-30T14:30:14Z
2019-11-30T12:32:48Z,42.805,6.029,13.3009,4.59996,2470.171,2019-11-30T14:33:17Z
2019-11-30T12:35:52Z,42.805,6.029,13.3029,4.59999,2470.124,2019-11-30T14:36:20Z
2019-11-30T12:38:55Z,42.805,6.029,13.3006,4.60003,2470.147,2019-11-30T14:39:24Z
2019-11-30T12:41:58Z,42.805,6.029,13.2998,4.60009,2470.147,2019-11-30T14:42:27Z
2019-11-30T12:45:01Z,42.805,6.029,13.3015,4.59994,2470.087,2019-11-30T14:45:30Z
2019-11-30T12:48:04Z,42.805,6.029,13.3001,4.59999,2470.124,2019-11-30T14:48:33Z
2019-11-30T12:51:08Z,42.805,6.029,13.3011,4.60009,2470.11,2019-11-30T14:51:36Z
2019-11-30T12:54:11Z,42.805,6.029,13.3015,4.60009,2470.1,2019-11-30T14:54:40Z
2019-11-30T12:57:14Z,42.805,6.029,13.3009,4.60003,2470.11,2019-11-30T14:57:43Z
2019-11-30T13:00:17Z,42.805,6.029,13.3004,4.60021,2470.1,2019-11-30T15:00:46Z
2019-11-30T13:03:21Z,42.805,6.029,13.3010,4.60013,2470.124,2019-11-30T15:03:50Z
2019-11-30T13:06:24Z,42.805,6.029,13.3002,4.60002,2470.063,2019-11-30T15:06:53Z
2019-11-30T13:09:27Z,42.805,6.029,13.3003,4.60002,2470.087,2019-11-30T15:09:56Z
2019-11-30T13:12:30Z,42.805,6.029,13.3009,4.60004,2470.087,2019-11-30T15:12:59Z
2019-11-30T13:15:33Z,42.805,6.029,13.3020,4.60009,2470.077,2019-11-30T15:16:02Z
2019-11-30T13:18:37Z,42.805,6.029,13.3012,4.60015,2470.087,2019-11-30T15:19:05Z
2019-11-30T13:21:40Z,42.805,6.029,13.3014,4.60003,2470.063,2019-11-30T15:22:09Z
2019-11-30T13:24:43Z,42.805,6.029,13.3021,4.60006,2470.087,2019-11-30T15:25:12Z
2019-11-30T13:27:46Z,42.805,6.029,13.3003,4.60003,2470.063,2019-11-30T15:28:15Z
2019-11-30T13:30:50Z,42.805,6.029,13.3003,4.60014,2470.087,2019-11-30T15:31:18Z
2019-11-30T13:33:53Z,42.805,6.029,13.3009,4.60002,2470.133,2019-11-30T15:34:22Z
2019-11-30T13:36:56Z,42.805,6.029,13.3022,4.60000,2470.1,2019-11-30T15:37:25Z
2019-11-30T13:39:59Z,42.805,6.029,13.2999,4.60001,2470.063,2019-11-30T15:40:28Z
2019-11-30T13:43:02Z,42.805,6.029,13.3006,4.60008,2470.063,2019-11-30T15:43:31Z
2019-11-30T13:46:06Z,42.805,6.029,13.3014,4.60021,2470.063,2019-11-30T15:46:34Z
2019-11-30T13:49:09Z,42.805,6.029,13.3025,4.60000,2470.063,2019-11-30T15:49:38Z
2019-11-30T13:52:12Z,42.805,6.029,13.3014,4.60016,2470.087,2019-11-30T15:52:41Z
2019-11-30T13:55:15Z,42.805,6.029,13.3007,4.59999,2470.077,2019-11-30T15:55:44Z
2019-11-30T13:58:18Z,42.805,6.029,13.3014,4.59996,2470.1,2019-11-30T15:58:47Z
2019-11-30T14:01:22Z,42.805,6.029,13.3009,4.60002,2470.077,2019-11-30T16:01:50Z
2019-11-30T14:04:25Z,42.805,6.029,13.3014,4.60002,2470.063,2019-11-30T16:04:54Z
2019-11-30T14:07:28Z,42.805,6.029,13.3010,4.60012,2470.1,2019-11-30T16:07:57Z
2019-11-30T14:10:31Z,42.805,6.029,13.3018,4.60004,2470.053,2019-11-30T16:11:00Z
2019-11-30T14:13:34Z,42.805,6.029,13.3022,4.60009,2470.063,2019-11-30T16:14:03Z
2019-11-30T14:16:37Z,42.805,6.029,13.3016,4.60002,2470.077,2019-11-30T16:17:06Z
2019-11-30T14:19:41Z,42.805,6.029,13.3020,4.60000,2470.063,2019-11-30T16:20:10Z
2019-11-30T14:22:44Z,42.805,6.029,13.3030,4.60007,2470.1,2019-11-30T16:23:13Z
2019-11-30T14:25:47Z,42.805,6.029,13.3026,4.59999,2470.077,2019-11-30T16:26:16Z
2019-11-30T14:28:50Z,42.805,6.029,13.3019,4.60010,2470.053,2019-11-30T16:29:19Z
2019-11-30T14:31:53Z,42.805,6.029,13.3008,4.60009,2470.053,2019-11-30T16:32:22Z
2019-11-30T14:34:57Z,42.805,6.029,13.3016,4.60001,2470.053,2019-11-30T16:35:26Z
2019-11-30T14:38:00Z,42.805,6.029,13.3015,4.60009,2470.077,2019-11-30T16:38:29Z
2019-11-30T14:41:03Z,42.805,6.029,13.3021,4.60001,2470.017,2019-11-30T16:41:32Z
2019-11-30T14:44:06Z,42.805,6.029,13.3024,4.60012,2470.04,2019-11-30T16:44:35Z
2019-11-30T14:47:09Z,42.805,6.029,13.3022,4.60010,2470.04,2019-11-30T16:47:38Z
2019-11-30T14:50:13Z,42.805,6.029,13.3006,4.59999,2470.04,2019-11-30T16:50:41Z
2019-11-30T14:53:16Z,42.805,6.029,13.3023,4.60016,2470.053,2019-11-30T16:53:45Z
2019-11-30T14:56:19Z,42.805,6.029,13.3011,4.60003,2470.053,2019-11-30T16:56:48Z
2019-11-30T14:59:22Z,42.805,6.029,13.3011,4.60008,2470.03,2019-11-30T16:59:51Z
2019-11-30T15:02:25Z,42.805,6.029,13.3006,4.60004,2470.017,2019-11-30T17:02:54Z